Date String (YYYY-MM-DD hh:mm:ss) UTC,Instrument flags,Ambient pressure (hPa),Sample flow (lpm),Bypass flow (lpm),Sample temperature (°C),Ambient temperature (°C),ASC tube jacket temperature (°C),LED temperature (°C),Box temperature (°C),Sample RH (%),Span deviation,Mass concentration (μg/m³),Mass concentration (μg/m³),Mass concentration (μg/m³)
DateTimeUTC,F1_M11,P_M11,Q1_M11,Q2_M11,T1_M11,T2_M11,T3_M11,T4_M11,T5_M11,U1_M11,ZSPAN_M11,X2_M11,X0_M11,X1_M11
2021-09-18 01:00:00,,0832.2,5.00,0.00,29.8,28.8,00.0,38.8,31.7,20.2,0002.0,0012.54,0041.63,0009.68
2021-09-18 01:01:00,,0832.2,4.99,0.00,29.8,28.9,00.0,38.8,31.7,20.2,0001.9,0012.53,0041.40,0009.67
2021-09-18 01:02:00,,0832.2,5.00,0.00,29.9,29.0,00.0,38.8,31.8,20.1,0001.8,0012.53,0040.57,0009.69
2021-09-18 01:03:00,,0832.2,5.00,0.00,29.9,29.1,00.0,38.8,31.8,20.1,0001.8,0012.56,0040.11,0009.69
2021-09-18 01:04:00,,0832.2,5.00,0.00,30.0,29.1,00.0,38.9,31.9,20.0,0002.2,0012.54,0040.64,0009.69
2021-09-18 01:05:00,,0832.1,4.99,0.00,30.0,29.2,00.0,38.9,31.9,20.0,0002.4,0012.39,0039.54,0009.66
2021-09-18 01:06:00,,0832.1,4.99,0.00,30.1,29.3,00.0,38.9,32.0,20.0,0001.7,0012.35,0039.52,0009.63
2021-09-18 01:07:00,,0832.1,5.00,0.00,30.1,29.3,00.0,39.0,32.0,19.8,0001.2,0012.27,0039.35,0009.60
2021-09-18 01:08:00,,0832.2,5.00,0.00,30.1,29.4,00.0,39.0,32.0,19.8,0001.3,0012.27,0037.45,0009.58
2021-09-18 01:09:00,,0832.1,5.00,0.00,30.1,28.5,00.0,39.0,31.8,19.7,0001.5,0012.11,0035.89,0009.54
2021-09-18 01:10:00,,0832.1,4.98,0.00,30.0,26.7,00.0,39.0,31.3,19.9,0001.5,0012.04,0035.65,0009.51
2021-09-18 01:11:00,,0832.1,5.00,0.00,29.9,26.5,00.0,39.0,31.2,20.0,0001.4,0011.98,0035.89,0009.49
2021-09-18 01:12:00,,0832.1,5.01,0.00,29.8,26.9,00.0,38.9,31.2,20.1,0001.3,0012.01,0036.63,0009.45
2021-09-18 01:13:00,,0832.1,4.99,0.00,29.7,27.3,00.0,38.9,31.3,20.1,0001.6,0011.88,0036.16,0009.42
2021-09-18 01:14:00,,0832.1,5.00,0.00,29.8,27.7,00.0,38.9,31.4,20.1,0001.3,0011.71,0036.92,0009.37
2021-09-18 01:15:00,,0832.1,5.01,0.00,29.8,28.0,00.0,38.9,31.5,20.1,0001.2,0011.61,0035.85,0009.34
2021-09-18 01:16:00,,0832.1,5.00,0.00,29.8,28.2,00.0,38.9,31.6,20.1,0001.2,0011.66,0035.84,0009.33
2021-09-18 01:17:00,,0832.1,4.99,0.00,29.8,28.4,00.0,38.9,31.6,20.0,0001.4,0011.58,0035.15,0009.30
2021-09-18 01:18:00,,0832.1,5.01,0.00,29.9,28.6,00.0,38.9,31.7,20.0,0001.9,0011.58,0035.93,0009.27
2021-09-18 01:19:00,,0832.1,4.98,0.00,29.9,28.7,00.0,38.9,31.7,19.9,0001.7,0011.48,0035.58,0009.24
2021-09-18 01:20:00,,0832.2,5.01,0.00,29.9,28.9,00.0,38.9,31.8,19.9,0001.5,0011.50,0036.30,0009.21
2021-09-18 01:21:00,,0832.1,5.00,0.00,30.0,29.0,00.0,38.9,31.8,19.8,0001.1,0011.52,0036.65,0009.21
2021-09-18 01:22:00,,0832.1,5.00,0.00,30.0,29.1,00.0,39.0,31.9,19.8,0001.2,0011.47,0035.73,0009.20
2021-09-18 01:23:00,,0832.1,5.00,0.00,30.0,29.1,00.0,39.0,31.9,19.7,0001.5,0011.36,0033.83,0009.19
2021-09-18 01:24:00,,0832.1,5.00,0.00,30.1,29.2,00.0,39.0,31.9,19.7,0001.4,0011.35,0034.43,0009.18
2021-09-18 01:25:00,,0832.1,5.00,0.00,30.1,29.2,00.0,39.0,32.0,19.6,0001.6,0011.36,0033.94,0009.17
2021-09-18 01:26:00,,0832.1,5.00,0.00,30.1,29.2,00.0,39.0,32.0,19.6,0001.7,0011.40,0034.66,0009.16
2021-09-18 01:27:00,,0832.1,5.01,0.00,30.1,27.5,00.0,39.0,31.5,19.6,0001.9,0011.41,0034.83,0009.15
2021-09-18 01:28:00,,0832.1,5.00,0.00,29.9,26.4,00.0,39.0,31.2,19.8,0001.9,0011.51,0035.86,0009.16
2021-09-18 01:29:00,,0832.1,5.00,0.00,29.8,26.6,00.0,39.0,31.2,19.9,0002.1,0011.55,0035.14,0009.18
2021-09-18 01:30:00,,0832.1,4.99,0.00,29.7,27.0,00.0,38.9,31.3,20.0,0002.4,0011.63,0034.53,0009.21
2021-09-18 01:31:00,,0832.1,4.99,0.00,29.7,27.4,00.0,38.9,31.4,20.1,0002.7,0011.63,0033.43,0009.22
2021-09-18 01:32:00,,0832.1,5.01,0.00,29.8,27.8,00.0,38.9,31.4,20.1,0002.8,0011.64,0032.87,0009.20
2021-09-18 01:33:00,,0832.1,4.99,0.00,29.8,28.0,00.0,38.9,31.5,20.1,0002.8,0011.69,0035.06,0009.20
2021-09-18 01:34:00,,0832.1,5.00,0.00,29.8,28.3,00.0,38.9,31.6,20.1,0002.7,0011.77,0037.97,0009.20
2021-09-18 01:35:00,,0832.1,4.99,0.00,29.8,28.5,00.0,38.9,31.6,20.1,0002.5,0011.83,0037.53,0009.19
2021-09-18 01:36:00,,0832.1,5.01,0.00,29.8,28.6,00.0,38.9,31.7,20.1,0002.6,0011.97,0037.55,0009.20
2021-09-18 01:37:00,,0832.1,4.98,0.00,29.9,28.7,00.0,38.9,31.7,20.1,0002.5,0012.03,0036.96,0009.21
2021-09-18 01:38:00,,0832.1,5.01,0.00,29.9,28.8,00.0,38.9,31.8,20.1,0002.6,0012.01,0037.59,0009.22
2021-09-18 01:39:00,,0832.1,4.99,0.00,30.0,28.9,00.0,38.9,31.8,20.0,0002.7,0012.06,0037.12,0009.25
2021-09-18 01:40:00,,0832.2,5.00,0.00,30.0,29.0,00.0,39.0,31.8,20.0,0002.3,0012.09,0036.95,0009.26
2021-09-18 01:41:00,,0832.2,5.01,0.00,30.0,29.1,00.0,39.0,31.9,19.9,0002.3,0012.03,0037.59,0009.25
2021-09-18 01:42:00,,0832.2,4.99,0.00,30.1,29.1,00.0,39.0,31.9,19.8,0002.2,0012.06,0038.01,0009.25
2021-09-18 01:43:00,,0832.3,5.01,0.00,30.1,29.2,00.0,39.0,32.0,19.8,0002.3,0012.03,0038.71,0009.25
2021-09-18 01:44:00,,0832.3,5.01,0.00,30.1,29.3,00.0,39.1,32.0,19.8,0002.4,0012.00,0037.57,0009.23
2021-09-18 01:45:00,,0832.3,5.00,0.00,30.2,29.3,00.0,39.1,32.0,19.7,0001.9,0011.97,0035.59,0009.22
2021-09-18 01:46:00,,0832.2,5.00,0.00,30.1,27.9,00.0,39.1,31.6,19.7,0001.8,0011.88,0036.68,0009.20
2021-09-18 01:47:00,,0832.1,5.00,0.00,30.0,26.5,00.0,39.1,31.3,19.9,0002.2,0011.76,0036.50,0009.16
2021-09-18 01:48:00,,0832.1,5.00,0.00,29.8,26.5,00.0,39.0,31.2,20.1,0002.1,0011.65,0035.75,0009.14
2021-09-18 01:49:00,,0832.1,5.01,0.00,29.8,26.9,00.0,39.0,31.3,20.2,0002.3,0011.57,0034.68,0009.12
2021-09-18 01:50:00,,0832.2,5.00,0.00,29.8,27.3,00.0,39.0,31.4,20.3,0002.4,0011.45,0033.66,0009.08
2021-09-18 01:51:00,,0832.2,5.01,0.00,29.8,27.7,00.0,38.9,31.4,20.2,0002.5,0011.37,0031.78,0009.02
2021-09-18 01:52:00,,0832.2,4.99,0.00,29.8,28.0,00.0,38.9,31.5,20.2,0002.5,0011.41,0030.86,0009.00
2021-09-18 01:53:00,,0832.2,5.00,0.00,29.8,28.2,00.0,38.9,31.5,20.2,0002.6,0011.31,0030.74,0008.95
2021-09-18 01:54:00,,0832.2,5.01,0.00,29.8,28.4,00.0,38.9,31.6,20.2,0002.3,0011.32,0031.65,0008.94
2021-09-18 01:55:00,,0832.2,4.98,0.00,29.8,28.5,00.0,38.9,31.6,20.2,0002.5,0011.44,0032.18,0008.97
2021-09-18 01:56:00,,0832.3,5.01,0.00,29.9,28.6,00.0,38.9,31.7,20.2,0002.9,0011.54,0032.95,0009.02
2021-09-18 01:57:00,,0832.3,5.00,0.00,29.9,28.7,00.0,38.9,31.7,20.1,0003.2,0011.66,0032.30,0009.08
2021-09-18 01:58:00,,0832.2,4.99,0.00,29.9,28.8,00.0,39.0,31.7,20.2,0003.0,0011.80,0032.37,0009.15
2021-09-18 01:59:00,,0832.2,5.00,0.00,29.9,28.9,00.0,39.0,31.7,20.2,0003.0,0011.91,0033.23,0009.22
